Wind_Speed
61 61 62 62 62 62 63 65 67 69 71 72 74 75 75 74 74 73 73 73 73 73 73 73 71 71 71 72 74 76 77 78 78 77 76 76 76 75 77 78 79 81 82 82 82 82 82 80 80 79 78 77 76 74 72 72 71 71 69 68 67 64 65 67 67 65 63 63 51 48 57 58 57 57 56 56 54 54 55 53 50 49 45 41 44 47 49 53
63 64 64 64 64 65 65 66 67 69 71 73 75 76 77 78 77 76 76 75 74 74 74 74 74 73 72 73 73 73 75 77 78 77 78 78 77 76 76 75 75 76 78 80 81 82 82 81 81 81 80 79 78 76 74 74 73 72 71 70 68 66 70 70 67 64 64 63 52 49 58 61 60 58 58 56 55 56 54 52 50 46 42 42 47 48 50 52
67 67 68 68 67 67 67 68 68 69 71 74 76 77 78 79 80 80 79 78 77 76 76 76 75 75 75 75 74 73 74 75 76 77 78 79 79 78 78 76 74 74 74 75 77 79 80 81 81 80 81 80 79 78 76 76 75 74 73 71 69 70 74 70 66 66 65 62 53 51 60 64 61 59 59 57 57 57 55 53 49 44 42 44 48 48 49 50
70 70 71 71 70 70 70 70 70 70 71 74 76 78 79 80 81 82 82 81 80 79 78 77 77 77 78 78 76 75 74 74 75 75 76 80 80 79 78 77 76 75 73 72 73 75 76 77 78 80 81 81 80 79 77 77 77 76 75 73 73 75 74 69 68 69 65 61 57 56 63 64 61 60 60 59 59 58 56 53 47 42 42 45 48 49 49 50
72 72 73 73 73 72 72 72 72 72 72 73 76 79 81 82 82 83 84 84 83 82 81 80 79 78 79 79 79 77 77 76 74 71 74 78 79 78 79 78 78 77 75 74 73 72 72 73 75 76 78 78 78 78 77 78 78 79 77 76 77 76 73 71 71 69 64 64 61 60 64 64 63 62 61 60 60 57 53 52 49 44 43 46 48 50 51 51
74 74 75 75 75 75 75 76 75 75 75 74 75 78 81 84 84 84 84 86 86 86 85 83 82 81 81 81 80 79 80 78 73 71 74 75 76 77 78 78 78 78 77 75 74 73 72 71 71 71 72 73 74 75 77 78 79 79 77 78 79 75 75 73 71 68 66 66 64 63 64 64 65 63 62 61 60 55 52 53 51 47 46 48 51 52 53 53
75 76 76 77 78 78 79 79 79 78 77 77 76 77 79 83 86 87 85 86 87 88 88 86 85 84 84 83 82 81 81 79 75 73 75 75 74 75 76 77 78 78 78 77 76 74 73 72 70 69 69 69 70 71 74 76 78 78 77 79 78 75 76 73 70 70 68 67 65 65 65 65 65 64 63 61 58 56 55 54 50 48 48 50 53 53 54 54
77 78 79 80 81 81 82 82 82 81 81 80 79 78 79 81 85 89 89 88 88 89 90 89 88 88 87 86 84 82 81 81 79 76 77 76 74 73 73 76 77 77 77 77 77 76 75 73 72 70 68 67 67 67 70 72 73 74 75 77 75 75 75 72 70 70 68 67 66 66 66 66 64 64 63 59 58 57 56 53 49 50 52 53 54 53 54 54
78 80 81 82 83 84 84 85 85 84 84 83 82 81 81 82 84 88 91 92 90 90 91 91 91 91 91 89 87 84 82 82 80 79 79 78 75 73 73 73 74 75 76 76 77 76 75 74 73 72 70 69 66 66 67 66 68 70 72 73 73 74 74 71 70 70 69 68 67 68 67 65 65 64 60 57 58 58 56 54 53 54 56 55 55 54 55 55
80 81 83 84 85 86 87 87 87 87 87 87 86 85 83 83 84 86 90 94 94 93 92 92 92 93 94 92 89 86 84 84 82 81 81 80 77 75 73 72 71 73 74 76 76 76 75 74 74 74 73 70 66 65 64 63 64 65 66 67 67 70 70 69 68 69 69 68 68 69 68 66 65 63 59 57 57 57 55 55 55 56 56 56 55 55 56 56
81 83 85 86 87 88 88 89 90 90 91 90 90 89 87 85 86 87 89 93 97 97 96 94 95 95 95 94 92 88 86 87 85 82 82 82 80 77 74 72 71 71 72 75 75 75 75 75 76 76 74 70 67 66 64 63 62 60 60 61 62 65 65 64 65 67 68 68 69 70 69 67 65 62 57 56 56 55 54 55 56 55 55 55 55 56 57 56
82 85 86 88 89 90 91 92 93 93 94 93 93 91 90 89 88 89 90 92 96 100 100 98 98 97 96 95 92 91 91 90 88 84 83 83 82 79 76 74 72 71 71 73 74 75 76 76 77 76 74 72 69 68 65 64 61 58 59 58 58 60 58 58 61 63 65 66 67 69 69 67 64 59 54 51 52 54 54 55 55 54 55 56 56 56 56 54
83 85 87 89 91 92 94 95 95 96 96 96 95 95 94 93 92 91 92 94 95 99 102 103 102 100 98 95 93 95 95 93 90 86 85 84 82 81 78 75 73 72 71 72 73 75 76 76 76 75 75 73 72 69 65 64 60 59 60 58 56 55 52 53 56 58 60 62 64 66 67 66 61 57 53 49 50 54 55 55 56 56 57 56 56 56 55 52
83 86 88 91 93 94 96 97 97 98 98 98 97 97 97 96 95 94 94 96 97 99 101 105 106 103 100 96 95 98 98 95 92 89 87 85 83 82 80 77 74 73 72 72 73 74 76 77 75 74 74 73 73 69 65 64 62 62 62 57 54 52 50 51 53 54 55 57 60 62 64 61 57 57 56 52 50 51 52 53 56 58 59 59 59 57 54 50
82 85 87 89 91 93 95 96 96 97 97 97 97 97 97 96 96 96 96 97 100 101 102 105 108 106 102 98 99 101 99 96 94 91 88 86 84 83 81 79 76 74 74 73 73 74 76 75 74 74 72 72 73 68 66 66 64 62 61 57 53 52 52 51 50 51 52 55 56 58 58 53 54 57 56 54 52 49 48 49 49 52 54 56 60 59 56 52
78 81 83 85 87 89 90 91 92 93 93 94 95 94 94 94 94 94 95 97 99 102 103 105 106 106 103 102 104 104 101 98 96 93 90 87 86 84 82 80 77 75 75 74 74 74 73 73 74 74 72 72 70 68 70 69 65 62 59 56 54 54 54 49 48 49 51 52 52 55 52 48 51 55 55 55 53 52 47 41 42 45 45 47 53 55 54 54
74 76 78 80 82 83 85 86 86 87 88 89 89 89 88 88 88 89 91 93 96 99 103 104 104 102 103 106 108 107 103 99 97 93 91 89 87 85 82 81 79 77 76 77 76 72 71 72 74 73 71 70 69 70 72 69 63 60 58 57 55 57 55 48 48 50 48 49 51 52 47 45 49 51 51 50 49 51 47 40 42 47 47 47 49 50 50 52
70 72 74 76 77 78 79 80 80 81 81 82 81 80 80 81 81 83 85 88 91 94 99 102 101 100 103 107 111 110 104 99 96 94 92 91 89 86 84 83 82 80 78 77 74 72 71 72 72 72 71 70 68 68 68 64 62 61 60 59 58 59 55 49 50 49 47 49 50 48 43 43 47 46 46 45 45 49 48 41 41 45 47 50 50 47 49 50
67 69 70 71 72 73 73 74 74 74 74 74 73 72 73 74 75 76 78 81 84 87 92 96 100 102 103 105 110 111 104 100 99 96 94 93 91 88 86 85 84 82 79 76 74 72 71 71 70 69 67 65 63 63 64 64 67 66 64 63 61 60 57 53 52 50 48 49 47 44 41 40 41 42 44 43 42 46 48 42 38 42 45 48 49 48 49 49
64 64 65 66 67 68 68 69 69 69 69 69 68 67 67 69 70 70 72 73 76 80 85 91 96 101 102 102 107 109 105 103 102 98 95 94 92 89 87 86 84 83 79 74 73 73 72 70 66 62 61 62 63 63 66 68 71 70 66 66 64 62 60 54 51 50 50 50 47 44 40 37 36 40 42 42 42 45 48 45 41 45 48 46 46 47 47 48
61 61 61 61 62 63 63 63 64 64 64 63 63 63 64 65 65 65 67 68 70 75 79 83 89 95 98 99 102 105 106 106 103 98 94 92 92 90 87 85 84 82 78 74 74 73 72 67 61 60 62 65 65 66 68 70 71 69 67 68 65 64 62 54 49 51 53 51 48 44 40 36 36 38 39 39 42 45 46 47 46 48 50 48 46 45 45 46
57 56 55 55 55 55 56 57 58 59 58 56 56 57 58 59 59 61 63 65 67 71 75 78 83 89 93 96 98 100 104 107 104 99 94 92 92 91 88 86 84 81 79 77 74 72 69 62 59 63 65 67 67 67 69 69 68 67 68 69 67 69 64 53 51 53 54 51 47 45 42 37 36 37 37 37 39 43 46 49 49 47 48 50 49 46 44 42
53 51 50 49 48 48 50 51 52 53 52 50 49 49 50 52 53 56 59 62 65 69 71 73 78 84 89 93 95 98 101 104 104 100 96 93 92 91 89 86 84 82 81 77 72 68 65 61 62 65 66 68 67 67 69 67 66 67 69 70 71 71 62 54 54 56 55 52 48 47 42 37 35 33 34 35 37 41 46 48 47 47 48 50 49 48 46 42
49 47 45 45 44 43 45 47 47 47 45 43 42 42 44 46 48 50 54 58 63 66 68 71 76 82 87 89 91 95 97 101 103 101 97 94 91 91 90 87 84 83 80 76 71 67 65 64 65 66 67 67 66 68 68 65 65 68 70 71 73 70 61 58 59 59 58 54 49 47 43 40 38 36 38 40 40 41 42 42 44 47 50 49 48 48 47 45
45 42 40 40 40 39 39 41 41 41 40 39 38 39 41 43 45 48 51 55 60 64 67 70 74 80 85 86 87 91 94 98 101 100 97 93 91 89 89 87 85 82 79 76 72 69 69 69 67 66 66 66 67 69 65 62 65 69 70 72 74 70 65 63 62 60 58 54 51 49 46 44 42 42 45 44 41 39 39 39 41 45 48 47 46 46 46 46
40 37 34 34 34 33 33 34 35 35 36 36 36 37 39 42 44 46 49 53 58 62 66 69 73 80 84 81 82 87 91 94 97 98 96 94 91 89 88 88 84 81 79 76 74 72 71 71 69 68 67 66 67 65 62 62 67 70 71 73 74 70 65 63 61 60 58 55 54 52 50 49 45 44 46 45 42 40 41 43 43 45 46 44 44 44 44 45
36 33 31 30 29 28 28 28 28 29 31 32 33 35 37 40 41 43 47 51 56 60 64 68 73 80 83 79 81 85 89 92 95 97 97 95 92 88 88 87 83 81 79 78 76 73 71 72 72 69 65 65 65 63 63 65 68 70 70 72 71 66 62 61 59 60 60 58 58 54 52 51 47 46 46 45 44 42 43 44 44 44 45 45 44 43 44 44
34 32 30 28 26 25 23 23 23 23 25 27 29 31 33 36 38 41 45 48 53 58 63 68 73 80 82 79 80 84 88 91 93 96 97 96 92 87 85 84 82 81 79 76 72 71 73 74 70 65 62 64 65 66 66 66 68 70 70 69 67 63 62 63 62 62 61 61 59 56 55 53 49 48 46 43 44 45 45 44 44 45 46 47 45 44 44 44
32 29 27 25 23 22 20 19 18 18 20 22 25 28 30 33 37 40 42 45 50 55 60 66 73 80 79 76 79 84 87 90 92 96 98 97 93 89 86 85 83 81 77 73 72 76 77 73 67 64 64 66 67 68 66 66 70 70 66 65 64 61 64 66 65 64 64 64 61 58 57 54 51 47 44 43 44 45 47 49 50 49 48 49 48 47 46 44
29 26 25 24 21 19 17 16 15 14 16 18 22 26 29 32 36 39 42 45 48 53 58 64 72 77 76 76 79 82 85 89 92 96 99 98 94 91 88 87 85 81 77 76 78 79 74 68 66 67 67 67 68 68 66 68 72 66 61 63 62 62 66 66 65 65 67 65 61 59 57 56 54 50 47 48 47 45 47 51 53 50 49 49 49 49 48 46
27 25 25 23 19 16 15 13 12 11 12 15 19 24 28 31 35 39 43 46 49 52 57 63 70 73 73 77 80 80 84 88 91 94 96 95 95 91 88 87 86 83 80 80 80 76 69 67 69 69 69 68 67 67 66 69 69 60 59 63 63 64 66 65 66 68 66 63 60 59 57 57 57 52 48 48 47 46 46 48 50 49 48 48 48 49 49 47
26 25 23 19 15 13 12 10 9 8 10 12 16 21 26 31 35 39 42 45 49 53 56 62 67 69 72 77 79 81 83 85 87 90 91 91 90 88 85 84 83 80 77 76 75 70 68 69 70 70 69 66 66 66 66 69 65 57 61 65 63 64 65 64 67 66 62 60 59 60 59 58 57 53 49 47 47 48 49 49 51 49 48 49 50 51 50 49
26 24 21 16 12 11 9 7 6 6 8 10 14 19 25 30 35 39 42 45 49 53 57 61 64 68 73 77 79 80 81 83 85 88 90 90 89 85 83 82 80 75 73 74 73 69 69 72 73 71 67 65 65 62 63 65 59 56 62 63 61 62 61 61 62 61 60 59 60 62 61 58 57 56 53 51 51 53 54 55 55 49 47 50 53 53 52 51
27 24 20 14 9 8 7 5 4 4 6 9 13 18 24 30 34 38 43 47 49 53 57 61 64 69 74 77 78 79 80 82 85 87 90 91 90 86 84 82 79 77 77 77 74 69 70 72 71 68 64 62 59 58 62 63 56 56 62 61 60 60 57 57 59 59 59 60 62 63 60 57 58 56 55 54 55 55 56 57 56 49 46 50 54 54 54 54
27 23 19 13 8 6 6 4 2 1 3 7 11 16 22 27 32 36 41 45 49 52 56 58 62 69 74 76 77 78 79 81 84 86 88 88 86 84 81 79 78 78 80 78 71 67 70 72 68 65 62 59 57 61 65 62 56 59 63 60 58 57 55 58 59 58 59 62 63 61 58 58 57 54 54 54 54 55 56 57 57 54 51 52 53 52 54 56
28 24 19 14 7 5 6 5 3 2 1 5 9 14 19 24 29 34 39 44 48 52 54 57 62 67 72 75 77 79 81 81 82 84 86 85 83 82 80 79 79 79 77 73 67 67 72 72 67 64 62 60 61 64 64 59 57 61 62 57 55 55 56 57 56 55 58 61 60 57 56 57 55 53 53 53 52 53 55 55 56 57 57 57 55 54 56 57
28 24 19 14 8 4 7 7 5 4 3 4 8 12 16 21 26 31 37 42 47 51 54 57 61 66 70 74 77 79 80 81 82 83 84 83 83 82 81 80 80 79 74 70 68 70 74 70 65 65 63 61 62 63 61 59 59 60 58 55 55 56 56 56 55 54 56 57 54 53 55 55 54 53 51 52 53 53 54 56 57 58 58 58 58 58 58 58
27 23 18 13 8 4 8 10 9 7 6 7 9 12 15 19 24 30 35 40 44 48 52 56 60 64 68 72 75 76 76 77 79 82 83 82 81 81 80 80 80 77 74 72 70 73 73 67 64 64 61 60 62 61 60 58 58 58 57 55 56 55 54 53 52 50 52 52 49 50 54 54 54 53 50 51 53 53 54 56 58 59 59 58 59 59 59 59
27 23 18 12 7 4 6 12 13 12 11 12 13 14 16 19 24 29 34 38 42 46 49 54 59 63 68 71 73 73 74 74 76 78 80 80 80 79 78 79 78 75 73 71 70 72 70 64 63 62 60 62 62 59 57 57 57 57 56 55 53 51 49 48 46 46 48 48 47 50 53 52 53 52 51 51 51 52 54 54 56 59 59 58 58 59 60 60
27 23 18 12 7 4 4 10 16 17 16 17 18 18 19 21 24 28 32 36 40 44 48 53 58 63 68 70 72 73 72 74 75 76 77 77 78 77 77 77 75 73 72 70 70 71 66 62 63 62 61 62 58 54 55 58 58 56 52 51 49 47 46 45 45 47 48 47 48 51 51 51 52 50 49 51 50 51 53 54 55 56 56 56 57 58 58 59
27 23 18 13 8 5 5 6 12 17 19 20 21 22 21 23 25 27 30 34 39 43 47 52 57 64 68 71 73 73 72 73 75 76 76 76 75 75 76 75 74 72 70 69 69 67 62 60 61 61 60 59 55 53 56 58 58 54 52 52 50 47 47 46 45 45 44 45 47 47 47 49 50 47 47 51 51 51 52 53 54 54 53 54 56 57 58 58
27 23 18 13 9 7 8 8 10 15 19 20 22 23 23 23 25 27 30 34 38 43 47 53 59 64 69 70 71 72 72 72 73 73 74 73 72 73 73 73 72 70 68 67 67 65 61 60 61 60 59 57 55 57 58 59 56 53 54 56 52 50 48 44 43 43 43 44 44 43 45 46 44 43 44 46 48 50 50 50 53 54 54 55 56 57 57 58
26 22 17 12 9 9 10 12 13 15 19 22 23 24 25 26 27 29 31 34 39 43 48 53 59 64 68 69 70 71 71 70 70 70 70 69 70 70 70 71 70 68 66 66 67 64 60 60 61 60 58 57 58 59 59 58 55 53 55 55 51 50 48 45 45 47 47 46 46 45 45 44 43 43 43 43 45 48 48 47 50 52 53 55 58 57 57 58
25 20 15 12 10 10 13 16 17 19 22 24 25 26 27 29 31 33 34 36 40 43 48 54 59 64 66 66 67 67 67 67 67 66 65 65 67 68 70 70 68 65 65 66 64 61 60 62 62 59 57 57 56 56 56 55 52 52 54 52 50 51 51 49 50 51 49 47 47 47 46 45 45 46 48 48 49 49 48 47 47 50 53 56 57 56 56 58
24 19 14 14 12 11 16 19 21 23 25 26 28 29 30 32 34 36 38 40 43 46 51 56 60 63 64 64 65 65 65 65 64 63 63 64 66 68 70 69 67 66 67 64 61 60 62 62 60 57 56 55 52 50 52 51 50 51 52 51 51 53 53 51 51 50 48 47 47 46 46 48 48 48 49 50 50 50 49 48 48 51 55 56 56 55 55 57
24 19 14 15 14 13 18 22 24 27 29 30 32 33 33 35 37 39 41 43 46 50 53 57 59 61 64 64 63 62 63 63 63 63 64 64 66 68 68 67 67 67 65 61 60 62 62 59 57 56 55 54 51 51 51 50 49 50 51 51 52 53 54 53 52 50 48 47 48 47 49 50 49 48 49 49 48 48 49 51 53 55 56 56 55 54 54 56
23 19 15 16 16 15 20 25 28 31 34 34 36 37 37 38 40 41 43 45 49 52 55 57 59 59 61 62 61 60 61 61 62 63 63 64 65 65 64 65 65 63 61 60 62 62 59 56 56 55 55 54 53 54 55 52 51 51 50 50 51 51 52 51 52 53 51 50 51 52 53 52 50 50 51 51 51 50 50 53 55 56 57 56 54 54 54 56
23 20 18 17 16 17 21 27 30 34 37 38 39 40 40 41 42 43 45 47 50 53 54 56 58 58 59 60 60 59 59 59 60 60 61 63 64 63 63 63 62 60 59 60 62 59 56 56 55 55 54 52 53 55 54 51 50 51 50 51 51 51 51 51 52 54 53 52 54 55 55 55 54 54 52 52 53 53 53 55 56 56 56 56 55 55 55 56
22 20 19 17 16 17 21 25 30 34 38 39 40 41 41 41 43 44 45 47 49 52 53 54 56 57 57 58 58 58 57 57 57 58 59 61 61 61 61 59 58 58 59 60 58 56 56 56 55 55 54 52 53 53 50 48 49 50 50 51 51 52 52 52 53 54 53 53 56 57 56 56 57 57 56 56 55 53 54 56 57 57 57 57 57 57 57 57
21 20 20 18 16 17 19 22 26 31 37 39 39 41 42 41 42 43 44 45 47 49 51 52 53 54 55 56 57 57 57 57 56 57 58 59 59 59 58 56 56 57 57 57 55 54 55 55 53 53 52 51 52 52 51 52 52 51 50 49 50 50 51 51 52 52 51 52 53 54 54 55 57 58 59 59 57 56 57 59 60 60 60 59 59 58 58 58
20 20 19 19 17 17 18 20 22 26 32 37 38 39 40 41 42 43 44 45 46 47 49 50 51 52 54 55 55 56 57 57 57 58 58 58 58 57 57 56 56 56 55 54 53 54 54 52 51 51 50 50 51 52 52 52 50 49 48 48 48 48 48 49 49 48 49 50 50 50 50 52 54 56 57 57 58 60 63 63 63 63 62 61 61 60 59 58
18 18 18 18 17 16 16 18 19 22 27 33 35 36 37 39 41 42 43 45 46 47 48 49 50 51 53 53 54 54 55 56 57 57 58 58 58 58 58 57 57 56 55 55 55 55 54 52 51 51 50 51 52 52 52 51 49 48 47 46 47 47 47 48 47 47 48 49 47 46 49 52 53 54 55 55 57 60 63 64 65 64 63 62 62 61 60 59
Wind_Direction
263 263 262 262 262 262 261 259 257 255 253 251 248 247 245 245 244 243 243 243 243 243 242 242 240 239 238 238 238 238 238 237 237 236 236 237 236 236 236 236 237 238 238 238 238 238 239 239 239 239 239 239 240 240 240 241 242 243 243 243 243 243 244 244 244 245 246 249 246 244 249 251 250 251 252 252 253 253 253 254 254 256 258 257 257 256 257 259
264 264 264 263 262 262 261 260 258 256 254 252 250 248 246 245 244 243 242 242 242 242 242 241 241 240 239 238 237 237 237 237 237 236 236 236 236 236 236 235 235 236 237 237 238 238 238 238 239 239 239 239 239 240 240 241 241 242 243 243 243 243 243 243 244 246 247 248 245 244 248 249 249 250 252 253 253 254 254 255 255 256 260 260 258 258 260 261
264 264 264 263 263 262 261 260 259 257 255 253 251 249 247 245 244 243 242 241 241 240 240 240 240 240 239 238 238 237 237 237 237 236 236 236 235 235 236 235 235 235 236 237 237 238 238 238 239 239 239 239 239 239 239 240 241 242 242 242 243 242 243 243 245 245 246 247 246 243 245 247 249 250 251 252 253 254 254 255 257 258 258 259 260 260 260 261
262 262 263 263 263 262 262 261 260 259 257 254 251 249 247 246 244 243 242 241 241 240 239 239 239 239 239 239 238 237 237 236 236 236 236 236 235 235 235 235 235 235 235 236 236 237 237 238 238 238 239 239 239 240 240 240 241 241 241 242 242 242 244 244 244 245 246 247 246 242 244 246 248 249 250 251 252 253 255 256 257 257 256 256 259 260 260 260
261 261 261 261 262 262 261 261 260 259 258 256 253 250 247 246 244 243 242 241 241 240 239 239 238 238 238 238 238 237 236 236 235 235 236 237 236 235 235 235 235 235 235 235 235 236 237 237 237 237 238 239 239 240 240 240 240 241 241 241 242 242 244 244 244 246 246 246 245 243 243 246 247 248 249 250 251 254 257 259 256 254 254 255 256 257 258 258
260 260 260 260 261 261 261 261 260 259 258 256 254 251 248 246 244 243 242 241 241 240 239 238 238 238 238 237 237 237 236 236 234 234 236 237 236 236 235 236 235 235 235 235 235 236 236 236 236 237 238 238 238 238 239 239 239 240 240 241 242 242 243 244 245 246 245 245 245 244 243 244 246 247 248 249 252 253 255 257 257 256 256 256 255 254 256 259
260 260 260 259 259 260 260 260 260 259 258 257 255 252 249 246 244 242 241 240 240 239 239 238 238 238 237 237 236 236 236 236 234 233 235 235 235 235 235 235 235 234 234 234 235 235 235 236 236 236 236 237 237 237 238 238 239 240 240 241 242 242 243 244 244 245 245 245 244 243 242 243 245 247 248 250 252 253 253 254 258 259 256 255 256 256 258 261
260 260 259 259 259 259 259 259 259 259 258 257 255 253 250 247 245 243 241 240 239 239 238 237 237 237 237 236 235 235 235 236 234 233 234 235 235 235 235 235 235 235 234 234 234 234 235 235 235 235 235 235 235 236 237 237 238 239 239 240 241 241 242 243 243 244 244 244 243 243 242 243 245 247 248 251 252 253 253 254 255 255 254 253 256 258 259 261
260 259 259 258 258 258 258 258 259 259 258 257 255 252 250 248 246 243 241 239 238 238 238 237 237 237 236 236 235 234 234 235 234 232 233 234 234 234 234 235 235 235 235 234 234 233 234 235 235 235 235 234 234 235 236 237 237 238 238 240 240 241 242 242 242 243 243 243 243 243 243 243 245 246 248 250 251 252 253 254 252 252 253 254 256 259 260 261
260 259 258 258 258 258 258 258 258 258 257 257 255 252 249 247 246 244 242 240 238 237 237 236 236 236 236 235 234 234 233 234 233 232 232 233 233 233 233 234 235 234 234 235 234 234 233 233 234 234 234 234 234 234 236 236 236 237 238 239 239 240 241 241 241 242 242 242 242 242 243 243 244 246 247 248 250 253 255 255 254 254 255 256 257 258 260 261
260 259 258 258 257 257 257 257 257 256 256 255 254 252 249 246 244 243 242 240 238 237 236 236 235 235 235 235 234 233 233 233 232 231 231 232 232 231 232 233 234 234 234 234 234 234 233 232 232 233 234 234 233 234 234 235 236 236 237 237 238 239 239 239 240 240 241 241 241 242 243 243 244 245 248 250 253 256 257 257 257 257 258 259 258 258 259 261
260 259 258 257 257 257 256 256 255 255 255 254 253 252 249 246 243 242 241 240 238 237 236 235 235 234 234 234 234 233 232 232 231 230 230 231 231 230 230 231 232 233 233 233 234 234 233 232 232 232 233 233 232 232 233 234 235 235 237 236 237 238 238 238 239 240 240 241 241 242 242 243 244 245 247 251 256 258 257 258 258 258 258 258 258 259 259 262
261 260 258 257 257 256 255 255 255 254 254 253 252 251 249 247 244 241 240 239 238 237 236 235 234 234 233 233 233 233 232 231 231 229 229 230 230 229 229 229 231 232 232 233 233 233 233 233 232 231 231 232 232 231 232 233 233 234 235 235 236 237 237 237 238 239 240 240 241 241 242 242 243 244 243 244 249 254 255 255 256 255 256 256 257 259 262 265
262 260 259 258 257 256 256 256 255 255 254 253 252 251 249 248 245 242 239 238 237 237 236 235 234 233 232 232 231 232 232 231 230 229 228 229 229 228 228 228 229 230 232 232 232 232 233 233 232 231 231 231 232 231 231 232 232 232 234 234 235 236 236 236 237 238 238 239 239 240 241 241 242 242 240 236 237 246 253 255 255 256 257 257 258 258 260 261
266 264 263 261 260 259 259 258 258 257 256 255 254 252 250 248 246 244 241 238 236 236 235 235 234 233 231 231 231 232 231 230 229 228 228 228 228 228 227 227 227 228 230 231 232 232 232 232 232 232 230 230 231 230 231 232 231 232 234 234 234 235 234 234 236 237 238 238 238 240 240 239 239 239 238 234 232 237 249 258 261 261 261 260 258 257 256 255
271 269 267 265 264 262 261 261 260 259 257 256 255 253 252 250 247 245 242 240 236 235 234 234 234 233 230 230 231 231 230 229 229 227 227 227 227 226 226 226 226 227 229 230 231 231 232 231 232 231 230 230 230 229 230 230 230 231 233 234 234 235 234 232 235 236 236 237 238 239 238 234 236 237 235 234 232 232 238 252 258 257 256 255 256 257 256 255
273 271 269 267 266 264 263 262 261 260 258 257 256 254 253 251 248 246 243 240 238 235 234 234 234 233 230 229 230 230 229 229 229 227 226 226 227 226 225 225 225 226 227 229 230 231 231 231 231 231 230 229 228 228 229 230 230 231 232 233 232 234 233 230 233 235 235 236 236 237 235 232 233 234 234 231 231 230 228 234 245 248 248 248 252 255 255 254
275 272 270 269 268 266 265 264 262 261 259 258 256 255 253 251 249 246 243 240 238 235 233 233 233 233 230 229 229 229 228 228 228 227 225 225 225 225 224 223 223 224 225 227 229 230 231 231 231 231 229 229 228 229 230 231 231 231 232 232 231 233 231 228 231 233 233 234 234 235 233 231 232 232 231 228 226 225 222 225 240 248 248 248 249 249 251 252
277 275 273 271 270 269 267 266 264 263 261 260 258 256 254 251 248 245 242 239 237 235 233 231 231 231 230 228 228 229 228 227 227 226 224 224 224 223 223 222 222 223 224 225 227 228 230 231 231 231 231 230 230 230 230 229 229 228 228 229 229 231 230 226 228 231 231 233 233 233 230 229 232 231 228 225 222 221 220 223 236 244 246 248 249 248 249 250
280 278 277 275 273 271 270 268 267 265 263 262 259 257 254 251 248 245 242 238 236 234 232 230 229 229 229 228 227 227 226 226 226 225 224 223 223 223 222 222 222 222 223 224 226 227 229 230 231 232 231 230 229 228 228 227 226 226 226 228 228 230 230 225 226 230 231 232 231 230 227 223 227 230 228 225 220 220 221 221 228 237 241 244 248 249 249 248
284 282 280 278 276 274 272 270 268 266 264 261 259 256 254 251 248 244 241 238 234 232 230 229 227 228 228 227 226 225 225 225 225 225 224 223 222 222 221 221 221 222 222 223 224 226 228 229 229 230 228 227 227 226 226 226 226 225 225 228 228 229 229 224 225 230 231 231 230 229 226 221 223 226 226 224 220 219 219 218 223 233 237 242 248 250 249 246
289 287 285 282 279 276 273 270 267 265 264 261 258 254 251 249 246 242 239 236 233 230 228 226 225 226 226 226 225 224 223 223 223 223 223 222 222 221 221 220 220 220 221 222 223 225 227 228 228 228 227 226 225 225 226 226 226 225 226 227 227 228 227 223 225 230 231 231 230 229 226 221 223 225 225 226 224 222 221 219 222 231 239 245 248 248 247 245
295 293 290 285 281 276 272 269 267 265 263 260 256 252 248 245 241 238 234 232 230 228 225 223 222 223 224 223 223 222 221 221 221 221 221 220 220 220 219 219 219 219 219 220 222 225 227 227 228 228 227 226 225 225 226 225 224 225 225 226 227 227 225 222 225 229 230 230 229 229 226 222 223 224 224 227 226 225 224 224 226 232 239 244 246 244 243 243
299 296 291 287 282 276 271 269 267 265 263 259 254 249 244 239 234 231 228 226 226 224 223 220 219 220 222 221 220 219 219 219 219 219 219 219 219 219 218 218 218 218 218 219 220 221 222 223 225 226 227 226 225 226 225 224 224 225 225 226 227 227 224 223 225 227 229 229 228 229 226 222 221 219 219 222 224 226 227 229 230 233 236 240 243 243 241 241
301 298 292 286 283 277 272 269 267 265 261 257 250 244 239 233 228 225 221 220 221 220 218 217 216 218 220 218 217 217 217 217 217 217 218 218 218 218 217 217 217 217 217 217 218 219 219 220 222 224 225 225 224 225 225 223 224 225 225 225 226 225 223 223 225 228 230 230 229 228 226 223 221 222 223 222 224 227 227 227 228 233 237 238 240 241 240 239
304 301 296 290 286 281 275 270 266 262 258 253 247 240 235 230 225 221 217 215 216 215 214 213 212 215 218 216 214 215 214 215 215 215 216 217 217 217 216 216 216 216 216 215 216 217 218 219 221 222 222 223 224 225 223 222 224 224 224 225 226 224 223 224 226 228 229 229 229 228 226 225 223 225 227 226 224 224 227 228 229 234 239 239 238 240 240 238
312 309 304 299 293 287 280 273 267 261 255 250 244 238 232 228 224 219 216 213 212 211 210 209 208 212 215 212 211 212 212 213 213 213 214 215 216 216 215 215 214 214 214 214 215 216 217 219 220 222 223 223 223 223 222 222 224 224 225 226 226 224 224 224 225 227 228 228 228 227 226 226 224 225 228 228 226 223 225 230 233 236 238 240 240 240 241 239
319 315 310 305 300 293 286 277 269 262 254 247 241 235 229 225 221 218 215 211 210 209 208 207 206 210 211 208 208 209 210 210 210 210 212 214 214 215 215 215 214 214 214 214 215 216 217 219 221 223 224 223 222 221 221 222 224 224 224 226 225 222 222 222 222 224 226 227 227 227 227 226 225 226 228 230 230 227 225 227 230 232 236 240 241 241 242 241
323 318 315 312 306 300 292 282 273 262 252 243 235 229 223 219 216 214 212 210 208 206 206 205 205 208 208 205 206 207 207 208 208 208 210 211 212 212 212 212 212 213 212 212 213 215 217 218 219 220 221 221 221 221 221 222 224 224 224 226 225 223 222 222 222 223 225 226 226 226 228 228 226 226 226 227 230 231 230 229 229 229 233 239 241 240 241 241
326 326 323 316 311 304 295 287 277 265 252 239 229 223 217 213 211 209 208 206 205 203 203 203 205 206 204 203 204 205 205 206 206 207 208 209 210 211 210 210 210 210 209 210 212 214 216 216 217 218 219 220 220 221 221 222 225 224 223 225 224 222 223 223 222 223 225 226 226 227 229 229 228 226 226 227 229 232 235 235 233 231 233 237 239 240 240 240
333 335 327 316 312 306 297 290 279 268 255 240 228 220 213 208 206 205 203 201 200 200 201 201 203 204 202 201 202 202 204 205 205 206 207 207 208 209 209 209 208 207 207 209 211 213 213 214 216 217 219 220 220 221 221 224 225 222 222 225 223 222 223 222 223 225 226 227 228 229 229 230 230 228 229 231 232 233 235 238 236 232 232 235 237 239 240 240
341 341 328 316 317 312 301 293 281 268 253 239 228 218 211 206 204 202 200 198 196 196 198 200 200 199 199 200 200 200 202 204 204 205 206 207 208 208 208 209 208 208 208 210 212 212 212 213 216 218 220 220 221 221 221 225 225 221 223 225 223 223 223 222 224 226 227 228 229 230 229 230 231 229 228 229 230 230 230 235 238 235 233 235 236 237 238 239
346 343 329 319 326 323 311 300 284 265 246 232 223 215 208 204 202 200 197 196 195 194 195 198 197 195 196 199 199 198 199 201 203 203 204 206 207 208 208 208 207 207 209 212 212 211 211 213 216 218 220 221 222 222 223 227 225 222 226 226 225 226 226 226 228 227 228 228 229 230 230 231 232 231 229 228 229 231 232 235 238 238 237 236 236 237 237 238
348 345 332 324 337 341 331 320 299 263 235 223 217 212 207 203 200 198 196 193 192 193 195 195 194 193 194 196 197 197 197 198 200 202 203 204 205 205 206 206 205 205 206 209 210 209 211 215 217 219 221 222 224 222 223 225 223 222 227 227 226 227 226 227 229 228 228 228 229 231 231 232 233 233 232 231 231 233 235 238 239 237 236 237 238 236 235 236
351 347 338 331 346 7 2 354 348 270 223 217 214 209 206 203 198 197 196 192 190 193 195 193 192 192 193 193 193 194 196 197 198 200 202 203 203 204 205 204 204 206 207 208 207 206 210 214 217 219 220 221 221 220 222 223 220 221 225 224 225 226 225 226 226 225 226 227 229 230 230 232 234 234 235 235 234 235 236 238 239 237 234 235 236 234 234 235
353 351 344 339 349 35 42 34 51 83 177 208 209 207 202 199 197 195 194 192 191 191 193 192 191 192 192 191 190 191 194 196 197 198 200 201 201 202 203 203 203 206 208 208 205 205 210 213 214 216 218 218 219 220 222 222 221 223 225 224 224 224 225 226 226 226 226 228 229 230 230 231 232 233 234 235 234 234 235 235 237 237 235 233 234 235 236 236
354 352 349 344 347 49 76 69 74 95 128 179 194 196 194 193 193 193 193 193 191 190 191 190 190 191 190 189 189 191 192 194 195 196 198 199 200 201 201 201 203 204 205 206 204 205 210 213 213 215 216 217 219 221 221 220 220 223 225 224 224 223 223 224 225 224 226 229 229 229 231 231 230 230 232 233 233 232 234 234 235 235 235 235 236 237 238 237
356 353 350 348 350 41 97 97 93 101 122 148 166 173 177 183 187 189 191 192 190 189 190 189 188 189 189 187 188 190 192 193 193 194 196 198 198 200 200 200 202 203 203 204 204 207 211 211 212 215 216 217 219 220 220 220 221 223 223 223 223 224 224 226 226 226 228 229 227 228 229 229 229 229 229 232 233 232 233 234 236 237 236 236 236 237 239 238
358 356 351 352 1 32 107 117 114 115 126 137 145 153 162 173 181 184 187 189 188 187 188 188 186 186 187 185 185 189 191 191 193 194 195 196 197 199 200 201 202 202 203 203 204 209 212 211 212 214 216 218 220 220 219 219 221 223 223 223 224 225 225 226 226 225 227 227 225 226 227 227 228 227 228 232 233 233 234 234 236 238 237 237 237 237 239 240
360 357 352 353 9 40 102 128 128 128 132 137 139 145 155 165 174 179 181 184 185 183 184 186 184 182 184 183 183 187 189 190 192 194 195 196 197 198 199 201 202 202 203 203 204 209 211 211 213 214 216 219 221 221 219 220 221 222 222 224 225 225 224 223 223 222 223 222 221 223 224 225 226 224 225 230 231 232 234 234 236 239 239 239 239 239 239 240
2 360 357 359 13 47 78 111 126 127 131 137 139 143 150 158 165 170 174 177 179 180 181 183 181 180 181 182 182 184 188 189 190 192 194 196 197 197 198 199 201 202 203 203 205 209 209 210 214 216 218 220 220 218 218 220 221 220 220 220 220 221 221 220 220 221 222 222 221 221 222 223 224 221 223 229 229 231 234 235 237 240 240 240 241 240 240 241
5 5 5 9 23 55 82 98 115 124 128 133 136 140 144 150 156 161 167 171 173 175 177 179 179 178 179 181 181 183 186 189 190 192 193 194 196 197 198 199 200 202 203 203 206 208 208 209 213 215 217 219 218 216 217 219 220 218 219 219 217 217 219 217 217 218 218 219 218 217 219 222 222 221 225 230 231 232 235 237 238 240 241 241 241 241 241 241
9 11 13 23 43 72 95 104 112 121 125 127 131 135 138 144 149 153 160 165 168 171 174 175 176 176 178 180 181 183 185 187 189 192 193 193 195 196 197 199 200 201 202 204 206 207 207 209 212 214 216 218 217 216 217 219 218 218 221 221 218 218 218 215 215 214 213 214 214 214 217 220 222 223 225 228 230 232 235 237 240 241 242 242 242 242 242 242
13 15 23 40 59 84 101 107 113 118 121 123 126 130 134 139 144 147 153 158 162 165 169 171 173 175 176 178 180 182 184 186 188 190 192 193 194 195 196 198 199 199 202 205 206 207 207 209 212 214 216 219 219 219 220 221 220 220 223 223 220 220 220 216 216 216 214 214 215 216 218 219 222 226 227 228 230 233 235 238 241 243 244 244 243 243 243 244
17 18 32 52 65 89 105 110 115 116 117 121 123 126 130 135 139 143 147 152 156 161 165 168 171 173 174 177 180 182 184 186 187 188 191 193 194 195 197 197 197 198 201 204 205 207 209 211 213 214 216 219 220 221 223 223 222 223 224 223 220 220 221 220 221 220 218 219 220 220 221 223 223 226 231 233 234 235 237 238 240 242 245 245 244 244 244 245
21 20 36 60 72 92 106 110 114 115 116 119 121 123 127 131 135 139 143 148 154 159 163 166 170 174 174 177 180 182 183 185 186 187 189 191 193 196 197 197 198 200 201 202 204 207 210 211 213 214 216 217 215 216 219 220 221 223 224 224 222 222 222 222 223 223 221 224 226 224 226 227 226 228 233 235 237 238 239 240 241 242 245 246 246 246 246 246
28 26 39 65 80 97 107 111 115 116 117 119 121 122 126 130 134 138 143 149 154 158 162 166 170 174 175 176 179 182 184 185 186 187 188 189 193 195 196 198 200 201 202 202 204 207 208 210 212 214 216 216 214 215 216 215 217 221 222 223 224 225 225 225 226 226 224 225 228 228 228 229 229 230 233 236 238 238 240 241 242 243 246 248 249 248 248 248
37 38 47 66 85 100 110 115 119 120 120 121 123 125 128 132 136 140 146 151 155 159 164 167 171 174 176 177 179 182 184 185 187 187 188 190 192 194 196 199 200 201 202 205 208 208 207 208 211 214 216 216 215 218 219 218 219 220 220 221 222 223 224 224 226 228 226 226 229 230 230 231 231 230 232 235 236 236 237 240 243 245 248 249 249 249 249 250
44 49 54 63 80 97 108 116 121 122 122 124 126 128 131 136 140 144 150 155 158 161 165 168 172 174 176 177 178 181 183 185 186 187 189 191 192 193 196 198 200 202 204 206 209 209 209 210 212 214 216 215 215 217 218 219 221 223 222 222 222 222 222 222 224 226 226 225 228 230 230 231 232 231 230 233 234 235 237 241 243 245 247 249 250 250 251 251
51 54 59 61 69 85 100 112 121 124 126 128 131 133 136 141 145 149 153 157 161 163 166 170 173 175 176 177 179 180 182 184 186 188 190 192 193 193 195 197 199 202 205 207 208 208 210 213 215 217 217 217 217 216 216 217 219 221 223 223 224 225 224 224 225 226 227 227 228 230 231 232 233 233 232 233 235 236 237 239 241 243 245 247 249 250 251 252
59 60 64 66 66 74 90 105 116 124 128 131 135 138 142 146 150 153 157 160 163 166 168 170 173 175 176 178 180 181 182 184 186 187 189 191 193 193 194 196 198 201 204 206 207 208 211 213 215 218 218 217 217 217 218 219 220 222 224 224 225 226 226 227 228 228 229 229 229 231 232 233 234 234 234 234 235 236 237 239 241 243 244 246 248 249 250 252
69 69 71 74 74 76 88 102 114 123 131 135 139 143 147 151 154 157 160 162 164 167 169 171 174 176 177 179 181 183 184 185 187 188 189 190 192 193 194 196 198 200 201 203 205 208 210 211 213 216 217 217 217 217 218 219 220 222 225 225 225 226 226 227 228 228 229 230 230 230 232 233 233 234 235 234 235 237 238 239 240 242 244 246 248 249 251 252
Height
10613 10612 10611 10610 10609 10609 10608 10608 10608 10609 10609 10610 10612 10614 10616 10618 10620 10623 10625 10628 10630 10633 10635 10638 10642 10645 10647 10649 10651 10654 10657 10661 10665 10670 10675 10675 10679 10686 10687 10692 10697 10699 10705 10708 10712 10715 10719 10725 10728 10731 10735 10739 10742 10746 10751 10752 10755 10757 10761 10766 10769 10774 10773 10773 10773 10777 10781 10783 10800 10805 10793 10792 10793 10795 10797 10798 10802 10804 10805 10809 10815 10818 10824 10829 10826 10825 10825 10822
10604 10603 10602 10601 10600 10599 10598 10598 10598 10598 10599 10600 10601 10603 10606 10608 10610 10613 10615 10618 10621 10624 10626 10630 10633 10636 10639 10640 10642 10647 10649 10653 10657 10662 10666 10667 10673 10678 10679 10685 10689 10692 10697 10700 10704 10707 10712 10717 10720 10724 10728 10732 10736 10740 10746 10746 10748 10752 10756 10759 10764 10768 10763 10764 10770 10775 10778 10780 10795 10802 10790 10785 10787 10791 10793 10795 10798 10799 10803 10806 10811 10817 10822 10822 10819 10820 10820 10818
10595 10593 10592 10591 10590 10589 10589 10588 10587 10588 10588 10589 10591 10593 10595 10597 10600 10602 10605 10608 10611 10614 10617 10621 10624 10628 10629 10630 10635 10638 10640 10645 10648 10654 10658 10660 10665 10669 10672 10678 10681 10685 10690 10694 10697 10701 10705 10709 10713 10718 10720 10725 10729 10734 10739 10740 10743 10746 10749 10754 10759 10758 10753 10761 10769 10770 10773 10778 10792 10797 10783 10778 10783 10788 10789 10791 10793 10795 10799 10803 10809 10816 10820 10818 10814 10814 10814 10814
10584 10583 10582 10580 10580 10579 10578 10578 10577 10577 10577 10578 10579 10581 10584 10587 10589 10591 10594 10597 10600 10604 10608 10611 10615 10618 10619 10622 10626 10629 10633 10636 10639 10647 10651 10650 10655 10662 10667 10671 10675 10679 10683 10687 10691 10693 10698 10702 10707 10709 10711 10718 10723 10728 10734 10735 10738 10739 10742 10748 10749 10747 10749 10760 10763 10763 10772 10777 10785 10788 10777 10774 10780 10783 10785 10787 10788 10791 10796 10801 10809 10814 10816 10814 10810 10809 10809 10809
10573 10572 10570 10569 10569 10568 10567 10567 10566 10566 10566 10567 10568 10570 10572 10575 10577 10580 10583 10586 10590 10593 10597 10601 10605 10608 10609 10612 10617 10622 10624 10625 10633 10643 10641 10641 10649 10656 10659 10663 10668 10672 10675 10680 10684 10687 10692 10696 10698 10701 10706 10713 10717 10723 10727 10728 10730 10731 10737 10741 10739 10743 10748 10753 10756 10761 10770 10772 10776 10779 10773 10772 10775 10777 10781 10783 10784 10790 10797 10799 10805 10810 10811 10809 10807 10806 10805 10805
10562 10560 10559 10558 10556 10556 10555 10554 10554 10554 10555 10555 10556 10558 10560 10563 10566 10569 10572 10575 10578 10582 10586 10591 10595 10598 10599 10603 10608 10612 10614 10619 10630 10636 10632 10636 10643 10647 10652 10656 10661 10665 10669 10674 10677 10681 10685 10688 10692 10696 10701 10705 10710 10715 10718 10720 10722 10725 10731 10731 10733 10741 10743 10746 10754 10759 10763 10765 10769 10771 10769 10769 10769 10773 10777 10778 10782 10790 10796 10795 10799 10806 10807 10805 10804 10802 10801 10802
10550 10548 10546 10545 10543 10543 10542 10541 10541 10542 10542 10543 10544 10546 10547 10550 10553 10557 10561 10564 10566 10570 10574 10580 10584 10586 10589 10593 10599 10603 10607 10613 10622 10626 10624 10628 10634 10639 10645 10647 10652 10657 10662 10667 10671 10675 10678 10682 10687 10690 10694 10698 10704 10708 10709 10712 10715 10719 10724 10724 10729 10737 10737 10743 10751 10752 10756 10760 10763 10764 10763 10763 10765 10770 10773 10776 10782 10787 10790 10792 10797 10802 10802 10801 10798 10798 10798 10798
10537 10535 10533 10531 10530 10529 10528 10528 10528 10528 10529 10530 10532 10533 10534 10537 10540 10544 10548 10552 10555 10557 10563 10569 10572 10575 10578 10582 10589 10595 10601 10604 10612 10619 10617 10620 10627 10632 10636 10639 10645 10650 10655 10660 10664 10667 10671 10676 10680 10684 10688 10692 10697 10700 10701 10706 10711 10714 10717 10719 10725 10730 10731 10739 10745 10746 10751 10754 10757 10757 10756 10759 10763 10766 10770 10776 10780 10782 10785 10790 10795 10795 10794 10795 10794 10794 10794 10794
10524 10522 10520 10517 10516 10515 10514 10514 10514 10515 10515 10516 10518 10520 10522 10524 10527 10530 10535 10539 10543 10545 10550 10556 10560 10563 10566 10571 10579 10587 10592 10594 10603 10611 10609 10613 10620 10624 10629 10633 10639 10644 10649 10652 10655 10661 10666 10671 10675 10678 10682 10684 10690 10694 10696 10702 10705 10707 10710 10714 10721 10724 10727 10735 10739 10741 10744 10748 10751 10750 10751 10756 10760 10762 10769 10776 10775 10777 10782 10785 10789 10788 10788 10791 10792 10791 10791 10791
10509 10507 10505 10503 10501 10500 10500 10499 10500 10500 10500 10502 10503 10505 10508 10511 10514 10517 10521 10525 10530 10533 10538 10543 10547 10551 10555 10561 10569 10578 10584 10586 10593 10600 10602 10606 10611 10616 10622 10627 10633 10637 10642 10644 10649 10655 10660 10664 10666 10669 10673 10679 10686 10689 10693 10697 10699 10702 10706 10711 10716 10718 10723 10730 10733 10735 10738 10742 10744 10744 10746 10752 10755 10760 10768 10772 10772 10775 10779 10780 10782 10783 10784 10787 10789 10789 10788 10788
10494 10492 10489 10488 10486 10485 10484 10484 10484 10484 10485 10486 10487 10490 10493 10496 10500 10503 10507 10511 10516 10520 10525 10531 10534 10538 10544 10550 10560 10570 10574 10575 10581 10590 10594 10598 10603 10609 10616 10621 10625 10630 10634 10637 10642 10647 10651 10656 10657 10661 10668 10675 10681 10684 10687 10690 10694 10700 10702 10706 10709 10711 10718 10724 10726 10728 10731 10735 10738 10739 10742 10747 10752 10758 10766 10770 10771 10774 10777 10776 10776 10778 10780 10781 10784 10785 10784 10784
10479 10476 10473 10471 10470 10468 10467 10467 10467 10466 10468 10469 10471 10473 10476 10480 10485 10488 10493 10497 10502 10506 10512 10517 10521 10526 10532 10541 10553 10559 10561 10563 10570 10581 10586 10589 10595 10603 10609 10614 10618 10623 10627 10630 10635 10639 10643 10647 10650 10657 10663 10669 10673 10677 10682 10685 10691 10696 10696 10700 10704 10706 10714 10719 10720 10722 10725 10730 10732 10734 10737 10742 10749 10758 10767 10771 10772 10773 10775 10774 10774 10775 10776 10777 10778 10778 10779 10781
10462 10459 10456 10454 10452 10450 10449 10449 10449 10449 10450 10451 10454 10456 10458 10463 10468 10473 10477 10482 10487 10492 10498 10503 10507 10514 10521 10534 10543 10542 10545 10552 10561 10571 10577 10581 10588 10594 10600 10607 10612 10616 10620 10624 10628 10631 10635 10639 10645 10652 10657 10662 10666 10672 10678 10681 10687 10690 10690 10695 10699 10704 10711 10713 10714 10717 10721 10724 10726 10728 10731 10738 10749 10757 10763 10767 10769 10768 10770 10772 10772 10772 10773 10773 10773 10774 10777 10780
10445 10441 10438 10435 10433 10431 10431 10430 10430 10431 10431 10433 10435 10438 10440 10444 10450 10456 10461 10466 10471 10477 10484 10488 10492 10500 10512 10526 10529 10525 10533 10543 10551 10561 10567 10573 10580 10586 10593 10600 10605 10610 10614 10617 10620 10624 10628 10632 10639 10645 10651 10657 10660 10668 10674 10676 10681 10683 10684 10691 10697 10702 10706 10707 10709 10712 10715 10718 10720 10722 10726 10737 10747 10751 10754 10759 10762 10763 10764 10768 10768 10768 10769 10770 10770 10772 10774 10777
10428 10424 10421 10418 10416 10413 10413 10412 10412 10413 10413 10415 10416 10418 10422 10426 10432 10437 10443 10449 10455 10462 10469 10472 10477 10488 10504 10514 10512 10511 10522 10532 10540 10550 10558 10565 10571 10578 10585 10592 10598 10602 10606 10610 10613 10617 10620 10627 10634 10639 10647 10651 10655 10666 10669 10670 10675 10679 10683 10690 10695 10697 10698 10701 10705 10708 10711 10712 10715 10717 10724 10737 10741 10741 10747 10752 10756 10761 10762 10763 10765 10765 10766 10766 10764 10766 10768 10771
10412 10408 10404 10401 10398 10396 10395 10394 10394 10394 10395 10397 10397 10400 10404 10409 10414 10419 10425 10432 10439 10446 10452 10457 10463 10475 10493 10501 10496 10499 10511 10521 10529 10541 10551 10557 10562 10569 10577 10584 10591 10595 10600 10603 10605 10610 10616 10624 10627 10632 10640 10644 10653 10662 10660 10662 10671 10676 10681 10686 10691 10691 10692 10698 10702 10703 10705 10708 10711 10713 10721 10732 10733 10733 10740 10746 10752 10757 10761 10764 10764 10762 10763 10762 10758 10759 10763 10766
10395 10391 10387 10383 10381 10379 10378 10377 10377 10377 10378 10379 10380 10383 10387 10392 10396 10402 10408 10414 10422 10430 10436 10443 10450 10464 10482 10486 10482 10486 10499 10511 10521 10534 10543 10548 10554 10562 10570 10578 10583 10588 10592 10594 10598 10606 10613 10618 10620 10627 10635 10640 10648 10652 10652 10661 10670 10674 10679 10682 10685 10683 10687 10696 10697 10698 10702 10705 10706 10708 10718 10726 10726 10729 10735 10742 10749 10752 10757 10760 10757 10756 10758 10757 10754 10756 10758 10760
10379 10375 10371 10368 10365 10363 10362 10361 10360 10360 10361 10362 10364 10368 10372 10376 10380 10385 10391 10398 10406 10413 10422 10431 10441 10454 10463 10467 10468 10473 10490 10506 10515 10524 10533 10538 10544 10552 10561 10567 10572 10578 10582 10587 10595 10603 10607 10610 10615 10621 10629 10636 10644 10648 10654 10665 10668 10670 10673 10675 10678 10677 10683 10692 10692 10694 10698 10699 10701 10705 10715 10719 10720 10726 10730 10737 10743 10746 10751 10754 10753 10753 10753 10751 10751 10753 10753 10754
10364 10360 10357 10353 10351 10348 10347 10345 10345 10345 10346 10347 10351 10355 10359 10361 10364 10370 10375 10382 10391 10399 10409 10418 10428 10435 10440 10451 10457 10464 10484 10498 10501 10510 10520 10526 10533 10542 10551 10557 10564 10570 10575 10584 10592 10597 10601 10605 10610 10619 10629 10638 10644 10649 10654 10657 10657 10659 10664 10666 10670 10671 10678 10685 10687 10691 10693 10694 10699 10704 10710 10714 10718 10722 10725 10731 10736 10740 10746 10751 10753 10752 10749 10747 10747 10748 10749 10750
10350 10347 10343 10340 10337 10334 10332 10331 10331 10331 10332 10334 10337 10341 10345 10347 10350 10357 10362 10370 10380 10387 10394 10402 10411 10417 10425 10438 10444 10454 10474 10482 10486 10498 10508 10517 10526 10534 10543 10550 10557 10563 10572 10582 10587 10592 10595 10600 10610 10622 10630 10634 10637 10640 10642 10642 10644 10651 10657 10660 10664 10667 10671 10680 10686 10688 10688 10690 10695 10700 10707 10712 10716 10718 10720 10726 10731 10735 10741 10746 10749 10747 10744 10742 10742 10743 10744 10745
10338 10334 10330 10327 10324 10321 10319 10318 10317 10317 10318 10321 10324 10327 10330 10332 10338 10345 10351 10359 10368 10374 10381 10390 10399 10406 10414 10424 10432 10447 10461 10467 10477 10490 10501 10512 10519 10526 10536 10544 10552 10560 10570 10577 10580 10584 10589 10600 10613 10618 10621 10622 10625 10629 10630 10633 10639 10648 10653 10654 10659 10662 10665 10678 10685 10682 10682 10687 10692 10698 10704 10710 10712 10713 10717 10722 10726 10731 10735 10738 10740 10739 10738 10737 10737 10739 10739 10741
10326 10321 10318 10315 10311 10309 10307 10306 10305 10304 10306 10309 10312 10314 10317 10321 10327 10333 10338 10347 10355 10362 10369 10378 10388 10395 10402 10411 10424 10437 10446 10456 10470 10482 10494 10504 10510 10520 10530 10537 10546 10556 10563 10567 10573 10581 10590 10603 10609 10608 10610 10612 10616 10621 10622 10628 10637 10644 10646 10647 10653 10653 10660 10677 10680 10676 10678 10684 10690 10695 10701 10708 10710 10711 10714 10717 10721 10725 10728 10729 10731 10733 10732 10731 10733 10735 10735 10736
10314 10310 10307 10304 10301 10299 10297 10295 10294 10294 10296 10298 10301 10304 10308 10311 10316 10321 10327 10335 10343 10350 10358 10369 10378 10384 10389 10400 10412 10423 10434 10447 10460 10471 10484 10493 10501 10513 10522 10530 10541 10548 10554 10562 10573 10582 10593 10601 10600 10599 10602 10605 10612 10615 10617 10625 10633 10637 10638 10641 10644 10647 10661 10675 10673 10671 10674 10680 10686 10691 10699 10707 10709 10710 10713 10714 10717 10719 10722 10724 10727 10729 10727 10727 10729 10730 10731 10732
10305 10301 10298 10294 10292 10290 10288 10287 10286 10286 10287 10289 10292 10295 10298 10301 10306 10311 10318 10324 10331 10339 10349 10358 10366 10371 10377 10387 10399 10411 10425 10437 10449 10462 10474 10485 10495 10504 10514 10524 10533 10540 10550 10561 10571 10579 10587 10589 10588 10591 10595 10601 10607 10608 10613 10624 10628 10629 10631 10634 10637 10646 10661 10667 10665 10666 10669 10675 10683 10688 10696 10703 10706 10708 10709 10710 10712 10714 10717 10720 10722 10723 10722 10723 10725 10725 10727 10729
10297 10293 10290 10286 10284 10281 10280 10279 10278 10279 10279 10281 10284 10286 10288 10292 10297 10302 10308 10315 10321 10329 10337 10346 10357 10363 10365 10377 10392 10404 10416 10427 10440 10455 10468 10479 10488 10498 10509 10517 10525 10536 10547 10556 10564 10571 10575 10577 10580 10585 10590 10596 10600 10602 10612 10621 10621 10621 10624 10627 10631 10643 10654 10658 10660 10663 10666 10673 10680 10684 10691 10695 10699 10701 10702 10706 10709 10711 10713 10715 10716 10716 10716 10719 10720 10720 10722 10724
10290 10286 10282 10279 10276 10274 10273 10272 10272 10272 10272 10273 10275 10278 10281 10284 10288 10295 10301 10307 10312 10319 10328 10337 10349 10352 10356 10372 10388 10397 10407 10420 10434 10449 10462 10473 10481 10491 10501 10510 10521 10532 10541 10549 10556 10561 10567 10571 10574 10578 10584 10590 10594 10600 10610 10613 10611 10613 10618 10621 10628 10640 10650 10655 10660 10660 10663 10670 10673 10678 10684 10688 10693 10695 10696 10701 10704 10707 10708 10709 10711 10711 10712 10714 10716 10717 10718 10720
10283 10279 10275 10272 10269 10268 10267 10266 10265 10265 10265 10267 10268 10271 10274 10277 10283 10289 10294 10299 10305 10312 10321 10328 10337 10341 10347 10366 10380 10389 10402 10414 10426 10442 10456 10465 10474 10486 10495 10505 10517 10526 10533 10541 10547 10556 10563 10565 10568 10574 10582 10587 10591 10598 10602 10604 10604 10607 10613 10618 10626 10640 10648 10653 10655 10654 10658 10663 10665 10672 10678 10682 10688 10689 10691 10696 10699 10703 10704 10705 10706 10706 10708 10710 10711 10713 10714 10716
10277 10273 10269 10266 10264 10262 10261 10260 10259 10260 10260 10261 10263 10266 10269 10273 10279 10283 10288 10294 10300 10307 10313 10320 10329 10332 10339 10358 10371 10382 10394 10405 10419 10436 10447 10457 10470 10482 10493 10504 10514 10520 10528 10538 10549 10556 10556 10558 10567 10575 10580 10583 10586 10590 10594 10598 10598 10601 10609 10615 10625 10638 10642 10644 10646 10647 10652 10655 10660 10667 10672 10678 10684 10685 10689 10693 10695 10698 10700 10701 10700 10701 10704 10705 10707 10710 10710 10712
10272 10268 10264 10262 10260 10258 10257 10255 10255 10255 10256 10257 10258 10260 10264 10268 10272 10277 10284 10290 10295 10302 10308 10316 10321 10323 10337 10357 10367 10374 10386 10399 10415 10427 10436 10448 10462 10474 10485 10496 10504 10513 10525 10536 10543 10542 10543 10555 10566 10571 10573 10576 10580 10583 10589 10593 10590 10596 10608 10614 10624 10634 10634 10636 10640 10642 10645 10648 10656 10663 10667 10675 10680 10682 10686 10688 10690 10692 10693 10694 10694 10698 10701 10702 10703 10705 10706 10708
10268 10264 10261 10259 10257 10255 10253 10252 10251 10251 10252 10254 10254 10256 10259 10263 10267 10272 10278 10284 10290 10296 10302 10309 10313 10320 10337 10353 10360 10370 10383 10394 10405 10414 10425 10441 10455 10465 10476 10486 10495 10507 10519 10526 10526 10529 10543 10557 10561 10562 10565 10569 10573 10579 10586 10586 10583 10597 10610 10612 10619 10625 10626 10630 10635 10636 10637 10644 10654 10659 10664 10670 10673 10677 10681 10682 10684 10686 10686 10687 10690 10695 10697 10698 10700 10700 10702 10705
10266 10262 10259 10256 10254 10252 10250 10249 10249 10249 10250 10251 10252 10254 10256 10259 10263 10267 10271 10276 10283 10290 10297 10303 10309 10322 10338 10347 10355 10367 10378 10387 10399 10410 10422 10435 10446 10457 10469 10479 10488 10499 10508 10513 10518 10531 10545 10552 10553 10555 10559 10564 10569 10575 10581 10578 10582 10601 10607 10604 10612 10617 10619 10626 10629 10629 10635 10645 10652 10655 10660 10664 10667 10674 10676 10676 10679 10680 10681 10682 10685 10690 10693 10694 10695 10695 10697 10700
10264 10260 10257 10255 10252 10250 10249 10248 10247 10247 10248 10249 10251 10252 10254 10257 10259 10263 10268 10273 10279 10285 10293 10299 10308 10322 10335 10342 10351 10363 10373 10386 10399 10411 10424 10437 10447 10458 10470 10479 10488 10500 10509 10515 10523 10535 10544 10545 10546 10549 10555 10561 10565 10571 10575 10574 10585 10601 10598 10598 10608 10611 10616 10622 10624 10630 10638 10644 10648 10650 10654 10657 10662 10669 10672 10672 10674 10674 10675 10677 10679 10684 10688 10689 10689 10690 10692 10694
10263 10259 10256 10254 10250 10249 10248 10246 10246 10246 10246 10248 10249 10251 10253 10255 10257 10261 10266 10271 10278 10283 10288 10295 10306 10318 10327 10337 10348 10359 10372 10386 10398 10409 10422 10433 10445 10458 10469 10478 10489 10503 10512 10516 10522 10532 10537 10536 10538 10544 10552 10559 10563 10571 10575 10575 10589 10598 10593 10598 10606 10609 10616 10622 10625 10632 10637 10640 10643 10643 10647 10653 10657 10662 10665 10667 10668 10668 10670 10672 10675 10679 10682 10683 10683 10684 10686 10688
10262 10259 10256 10253 10250 10248 10247 10246 10245 10245 10246 10247 10248 10250 10252 10254 10257 10260 10264 10270 10277 10282 10287 10293 10304 10313 10322 10333 10347 10359 10371 10381 10393 10405 10415 10424 10437 10451 10462 10473 10486 10496 10499 10504 10515 10527 10531 10532 10538 10546 10554 10559 10566 10573 10571 10574 10588 10592 10588 10595 10601 10606 10615 10619 10622 10628 10632 10634 10634 10636 10643 10649 10651 10656 10660 10661 10662 10664 10665 10667 10671 10675 10677 10675 10675 10678 10680 10682
10262 10259 10256 10253 10250 10247 10247 10246 10245 10245 10246 10247 10249 10251 10253 10256 10259 10262 10267 10272 10277 10283 10289 10296 10304 10311 10319 10331 10345 10359 10370 10379 10389 10401 10412 10424 10439 10452 10463 10474 10485 10489 10491 10499 10514 10526 10527 10529 10538 10546 10552 10558 10563 10564 10563 10571 10583 10582 10581 10589 10597 10604 10610 10611 10614 10621 10625 10625 10626 10632 10640 10642 10646 10652 10654 10654 10657 10659 10660 10662 10665 10669 10670 10668 10669 10672 10674 10676
10262 10260 10257 10255 10251 10248 10247 10246 10246 10246 10247 10248 10250 10252 10254 10257 10261 10264 10269 10273 10278 10283 10291 10298 10305 10312 10320 10330 10342 10353 10365 10376 10388 10399 10411 10425 10439 10451 10460 10471 10478 10483 10491 10504 10517 10522 10520 10524 10535 10541 10547 10553 10555 10556 10561 10571 10577 10575 10578 10588 10596 10600 10603 10605 10610 10617 10619 10619 10624 10631 10635 10637 10641 10646 10647 10649 10651 10653 10656 10658 10659 10660 10662 10663 10665 10667 10667 10670
10264 10261 10258 10256 10253 10249 10247 10247 10247 10247 10247 10249 10251 10254 10256 10259 10263 10267 10271 10275 10279 10284 10291 10298 10306 10314 10323 10332 10342 10353 10363 10373 10385 10398 10410 10423 10435 10444 10454 10464 10472 10480 10491 10503 10512 10513 10512 10522 10533 10536 10542 10547 10549 10553 10559 10566 10570 10572 10579 10587 10590 10592 10596 10601 10605 10611 10613 10616 10624 10629 10630 10633 10636 10638 10641 10643 10645 10648 10651 10652 10652 10653 10656 10658 10660 10661 10661 10664
10266 10263 10260 10258 10256 10252 10248 10246 10247 10248 10249 10250 10252 10255 10258 10261 10265 10269 10273 10278 10282 10287 10294 10300 10308 10318 10327 10335 10346 10357 10367 10377 10387 10397 10409 10422 10433 10443 10453 10461 10468 10478 10488 10497 10505 10506 10509 10521 10528 10532 10540 10544 10544 10549 10557 10563 10567 10571 10576 10580 10583 10588 10595 10599 10603 10609 10611 10615 10622 10624 10624 10627 10630 10634 10638 10637 10639 10642 10642 10644 10646 10647 10650 10652 10654 10655 10656 10658
10267 10264 10262 10259 10257 10255 10251 10247 10246 10248 10249 10251 10253 10256 10259 10262 10266 10270 10274 10279 10284 10290 10298 10304 10310 10320 10329 10339 10350 10361 10371 10381 10392 10401 10411 10422 10433 10442 10452 10460 10468 10478 10486 10494 10501 10503 10509 10520 10526 10530 10537 10537 10539 10548 10556 10561 10563 10567 10572 10577 10582 10589 10594 10597 10602 10606 10607 10611 10617 10617 10618 10622 10625 10630 10633 10632 10634 10635 10636 10640 10641 10640 10644 10647 10648 10650 10651 10652
10269 10266 10264 10262 10259 10258 10256 10252 10248 10247 10249 10251 10253 10256 10260 10263 10267 10271 10276 10281 10287 10293 10300 10307 10314 10322 10333 10342 10352 10363 10373 10383 10393 10403 10414 10423 10432 10441 10451 10459 10468 10477 10484 10492 10497 10500 10510 10520 10523 10527 10531 10533 10541 10551 10555 10556 10559 10565 10572 10577 10582 10587 10591 10594 10597 10599 10601 10606 10610 10610 10614 10618 10619 10625 10627 10626 10628 10631 10632 10634 10635 10636 10640 10642 10643 10645 10646 10647
10272 10269 10266 10264 10262 10261 10260 10259 10255 10252 10252 10254 10255 10258 10261 10265 10269 10274 10279 10284 10290 10296 10303 10310 10317 10325 10335 10344 10352 10363 10374 10383 10392 10402 10412 10422 10432 10441 10450 10458 10468 10475 10483 10491 10495 10501 10511 10518 10520 10524 10529 10534 10543 10548 10550 10551 10556 10564 10568 10571 10577 10581 10585 10589 10592 10596 10600 10603 10605 10608 10611 10612 10615 10621 10622 10620 10623 10626 10628 10630 10632 10634 10636 10637 10638 10639 10641 10643
10275 10272 10269 10267 10266 10264 10263 10262 10261 10259 10258 10258 10259 10261 10264 10268 10272 10277 10282 10287 10293 10299 10306 10314 10321 10329 10337 10347 10355 10365 10374 10384 10394 10403 10413 10423 10433 10442 10451 10460 10468 10475 10483 10490 10494 10501 10509 10514 10517 10522 10527 10533 10539 10542 10543 10547 10554 10560 10562 10565 10571 10575 10580 10586 10590 10594 10596 10598 10602 10605 10606 10608 10613 10618 10618 10617 10619 10621 10622 10625 10627 10629 10631 10632 10632 10633 10636 10638
10279 10276 10274 10271 10269 10268 10266 10265 10265 10264 10263 10263 10264 10266 10268 10272 10276 10281 10286 10292 10297 10303 10310 10318 10327 10334 10341 10351 10360 10368 10376 10387 10397 10406 10415 10426 10435 10444 10452 10459 10466 10475 10483 10487 10491 10499 10507 10511 10513 10518 10524 10528 10532 10536 10539 10544 10551 10556 10557 10562 10570 10573 10577 10582 10585 10586 10588 10592 10596 10598 10601 10606 10610 10613 10613 10614 10615 10615 10616 10619 10621 10623 10626 10625 10625 10628 10632 10633
10284 10281 10278 10276 10274 10272 10270 10269 10269 10268 10268 10268 10269 10271 10274 10277 10280 10285 10290 10296 10302 10309 10317 10325 10333 10340 10348 10356 10365 10373 10382 10390 10399 10409 10420 10429 10437 10444 10451 10457 10466 10475 10480 10483 10491 10500 10504 10505 10509 10516 10521 10524 10529 10535 10539 10544 10551 10554 10556 10561 10568 10571 10573 10577 10578 10581 10585 10588 10591 10595 10598 10602 10604 10605 10606 10607 10609 10610 10612 10615 10618 10619 10619 10619 10620 10624 10627 10628
10289 10286 10283 10280 10279 10277 10275 10274 10273 10273 10273 10274 10275 10278 10280 10283 10287 10290 10295 10302 10308 10315 10323 10330 10338 10346 10354 10362 10369 10377 10385 10394 10403 10413 10422 10430 10437 10442 10448 10456 10465 10470 10474 10483 10492 10497 10498 10502 10508 10515 10519 10524 10532 10537 10540 10545 10550 10551 10553 10559 10563 10566 10569 10573 10575 10579 10585 10587 10590 10593 10595 10596 10598 10599 10600 10602 10605 10608 10610 10611 10613 10613 10612 10613 10615 10618 10621 10623
10295 10292 10288 10286 10285 10283 10281 10279 10279 10278 10279 10281 10282 10284 10288 10291 10294 10297 10302 10308 10315 10322 10330 10337 10344 10351 10357 10365 10373 10382 10389 10398 10406 10413 10421 10429 10436 10441 10448 10457 10462 10466 10474 10484 10489 10491 10495 10503 10508 10513 10517 10522 10529 10532 10535 10541 10545 10547 10551 10555 10559 10562 10565 10569 10572 10577 10582 10585 10586 10590 10591 10591 10596 10598 10597 10599 10602 10604 10606 10606 10606 10606 10606 10607 10610 10613 10616 10617
10301 10298 10295 10292 10291 10289 10287 10285 10285 10284 10285 10287 10289 10292 10295 10299 10302 10306 10311 10316 10322 10329 10336 10342 10350 10357 10363 10370 10378 10386 10393 10400 10407 10413 10421 10429 10435 10442 10450 10456 10461 10469 10477 10483 10484 10487 10496 10502 10506 10510 10514 10519 10525 10526 10529 10535 10539 10542 10547 10550 10554 10558 10561 10566 10570 10572 10577 10580 10582 10583 10585 10587 10592 10594 10595 10596 10598 10600 10600 10599 10600 10600 10601 10603 10606 10608 10610 10611
10307 10305 10302 10300 10298 10296 10294 10292 10291 10290 10291 10294 10296 10299 10302 10306 10310 10314 10319 10324 10329 10335 10341 10348 10354 10361 10368 10374 10381 10389 10396 10403 10410 10417 10424 10429 10434 10442 10449 10455 10462 10471 10477 10479 10481 10488 10495 10499 10503 10507 10511 10517 10521 10523 10527 10533 10536 10539 10542 10545 10549 10553 10557 10561 10564 10566 10571 10575 10576 10576 10580 10583 10586 10589 10591 10591 10591 10593 10594 10594 10596 10597 10597 10599 10600 10602 10603 10605
10314 10312 10310 10308 10306 10304 10302 10301 10299 10298 10299 10301 10304 10306 10310 10314 10318 10322 10326 10331 10335 10341 10347 10353 10359 10365 10371 10378 10385 10392 10400 10408 10414 10420 10425 10430 10436 10443 10449 10457 10465 10470 10473 10476 10482 10489 10494 10496 10500 10504 10508 10514 10517 10521 10527 10531 10533 10535 10538 10541 10544 10547 10551 10554 10557 10559 10565 10569 10569 10571 10576 10578 10579 10583 10585 10585 10586 10589 10591 10591 10592 10592 10592 10593 10594 10595 10597 10599
10320 10319 10317 10316 10315 10313 10311 10310 10309 10307 10306 10308 10311 10314 10317 10321 10325 10328 10333 10338 10343 10348 10352 10358 10364 10371 10377 10383 10388 10394 10400 10408 10414 10420 10425 10431 10438 10444 10451 10458 10464 10467 10471 10477 10483 10488 10491 10495 10500 10503 10506 10512 10515 10518 10522 10524 10527 10531 10535 10538 10541 10544 10548 10551 10553 10557 10561 10564 10565 10568 10572 10573 10574 10577 10579 10580 10584 10586 10585 10584 10585 10586 10587 10588 10588 10590 10592 10594
10326 10325 10324 10324 10323 10322 10320 10319 10318 10317 10316 10316 10318 10321 10323 10327 10330 10334 10338 10343 10348 10353 10358 10363 10369 10375 10380 10386 10391 10396 10401 10407 10412 10418 10424 10431 10437 10444 10450 10455 10460 10464 10470 10477 10482 10485 10488 10493 10498 10500 10504 10509 10512 10515 10517 10521 10526 10529 10532 10535 10538 10541 10545 10548 10551 10555 10557 10559 10562 10566 10568 10569 10569 10571 10572 10576 10579 10579 10577 10578 10580 10580 10581 10582 10583 10584 10587 10589
10331 10330 10330 10329 10329 10329 10328 10327 10327 10327 10325 10325 10325 10328 10330 10332 10335 10339 10343 10347 10351 10356 10362 10367 10373 10379 10384 10389 10394 10399 10404 10408 10413 10418 10424 10430 10436 10442 10447 10452 10457 10462 10467 10472 10476 10479 10485 10490 10494 10497 10501 10505 10507 10511 10514 10519 10523 10526 10529 10532 10535 10538 10541 10543 10547 10550 10552 10554 10559 10562 10563 10562 10562 10564 10567 10570 10572 10571 10571 10572 10573 10574 10576 10577 10578 10580 10582 10584